This is the latest recevied weather packets stored in our database for station/object N9XTN-3. If no packets are shown the sender has not sent any weather packets the latest 10 day(s).
| Time | Temp. | Humidity | Pressure | Rain* | Wind** | Luminosity | Snow |
|---|---|---|---|---|---|---|---|
| 1778109337 | 15.56° C | 26% | 1015.3 hPa | 0 mm | - | - | - |
| 1778106617 | 16.11° C | 26% | 1015.8 hPa | 0 mm | - | - | - |
| 1778105717 | 16.11° C | 25% | 1015.9 hPa | 0 mm | - | - | - |
| 1778104817 | 16.11° C | 26% | 1016.1 hPa | 0 mm | - | - | - |
| 1778104517 | 16.11° C | 25% | 1016.2 hPa | 0 mm | - | - | - |
| 1778104217 | 16.11° C | 27% | 1016.2 hPa | 0 mm | - | - | - |
| 1778103917 | 16.11° C | 27% | 1016.3 hPa | 0 mm | - | - | - |
| 1778102717 | 15° C | 27% | 1016.5 hPa | 0 mm | - | - | - |
| 1778101817 | 15° C | 28% | 1016.7 hPa | 0 mm | - | - | - |
| 1778100017 | 15.56° C | 27% | 1017.2 hPa | 0 mm | - | - | - |
| 1778094017 | 14.44° C | 32% | 1017.9 hPa | 0 mm | - | - | - |
| 1778093117 | 13.89° C | 32% | 1018.1 hPa | 0 mm | - | - | - |
| 1778092817 | 13.89° C | 33% | 1018.1 hPa | 0 mm | - | - | - |
| 1778091317 | 13.89° C | 32% | 1018.4 hPa | 0 mm | - | - | - |
| 1778091037 | 13.89° C | 31% | 1018.4 hPa | 0 mm | - | - | - |
| 1778088617 | 13.33° C | 31% | 1018.9 hPa | 0 mm | - | - | - |
| 1778088017 | 12.78° C | 35% | 1018.9 hPa | 0 mm | - | - | - |
| 1778086517 | 12.78° C | 36% | 1019.1 hPa | 0 mm | - | - | - |
| 1778084717 | 12.22° C | 39% | 1019.2 hPa | 0 mm | - | - | - |
| 1778084117 | 11.67° C | 38% | 1019.3 hPa | 0 mm | - | - | - |
| 1778083517 | 11.67° C | 37% | 1019.2 hPa | 0 mm | - | - | - |
| 1778080817 | 10.56° C | 41% | 1019.3 hPa | 0 mm | - | - | - |
| 1778079617 | 10.56° C | 41% | 1019.3 hPa | 0 mm | - | - | - |
| 1778077517 | 9.44° C | 48% | 1019.3 hPa | 0 mm | - | - | - |
| 1778077217 | 9.44° C | 47% | 1019.3 hPa | 0 mm | - | - | - |
* Rain latest hour (hover to see other rain measurements)
** Current wind speed in m/s (hover to see current wind gust speed)